Location: Borojevi?i
(45.0486°N, 16.2297°E)
Time: 04:55:22
(UTC+00:00)

USA 238 - Pass Details

Date: 08 August 2020
Orbit: 1006 x 1206 km, 63.4° (Epoch: 19 September)

Event Time Altitude Azimuth Distance (km) Brightness Sun altitude
Rises 20:29:24 0° 208° (SSW) 3,729 6.3 -20.1°
Reaches altitude 10° 20:31:57 10° 207° (SSW) 2,793 5.6 -20.4°
Maximum altitude 20:38:29 74° 124° (ESE) 1,084 3.5 -21.1°
Drops below altitude 10° 20:45:20 10° 41° (NE) 2,918 6.1 -21.8°
Sets 20:48:03 0° 40° (NE) 3,907 6.9 -22.1°
